TimeEDT,TemperatureF,Dew PointF,Humidity,Sea Level PressureIn,VisibilityMPH,Wind Direction,Wind SpeedMPH,Gust SpeedMPH,PrecipitationIn,Events,Conditions,WindDirDegrees,DateUTC
12:15 AM,66.4,66.4,100,30.28,7.0,North,-9999.0,-,N/A,,Overcast,0,2013-08-22 04:15:00
12:35 AM,66.2,66.2,100,30.27,5.0,North,-9999.0,-,N/A,,Overcast,0,2013-08-22 04:35:00
12:55 AM,66.2,66.2,100,30.26,7.0,North,-9999.0,-,N/A,,Overcast,0,2013-08-22 04:55:00
1:15 AM,66.2,66.2,100,30.26,7.0,North,-9999.0,-,N/A,,Overcast,0,2013-08-22 05:15:00
1:35 AM,66.2,66.2,100,30.26,7.0,North,-9999.0,-,N/A,,Overcast,0,2013-08-22 05:35:00
1:55 AM,66.2,66.2,100,30.27,10.0,North,-9999.0,-,N/A,,Overcast,0,2013-08-22 05:55:00
2:15 AM,66.2,66.2,100,30.26,7.0,North,-9999.0,-,N/A,,Overcast,0,2013-08-22 06:15:00
2:35 AM,66.2,66.2,100,30.26,10.0,North,-9999.0,-,N/A,,Overcast,0,2013-08-22 06:35:00
2:55 AM,65.7,65.7,100,30.25,10.0,North,-9999.0,-,N/A,,Overcast,0,2013-08-22 06:55:00
3:15 AM,65.5,65.5,100,30.25,7.0,North,-9999.0,-,N/A,,Overcast,0,2013-08-22 07:15:00
3:35 AM,65.3,65.3,100,30.25,4.0,North,-9999.0,-,N/A,,Overcast,0,2013-08-22 07:35:00
3:55 AM,65.3,65.3,100,30.25,2.5,North,-9999.0,-,N/A,,Overcast,0,2013-08-22 07:55:00
4:15 AM,64.9,64.9,100,30.25,3.0,North,-9999.0,-,N/A,,Overcast,0,2013-08-22 08:15:00
4:35 AM,64.8,64.8,100,30.25,1.8,North,-9999.0,-,N/A,,Overcast,0,2013-08-22 08:35:00
4:55 AM,64.8,64.8,100,30.25,1.8,North,-9999.0,-,N/A,,Overcast,0,2013-08-22 08:55:00
5:15 AM,64.8,64.8,100,30.25,4.0,North,-9999.0,-,N/A,,Overcast,0,2013-08-22 09:15:00
5:35 AM,64.9,64.9,100,30.25,2.5,North,-9999.0,-,N/A,,Overcast,0,2013-08-22 09:35:00
5:55 AM,64.6,64.6,100,30.25,1.0,North,-9999.0,-,N/A,,Overcast,0,2013-08-22 09:55:00
6:15 AM,64.4,64.4,100,30.25,0.8,North,-9999.0,-,N/A,,Overcast,0,2013-08-22 10:15:00
6:35 AM,64.4,64.4,100,30.25,0.2,North,-9999.0,-,N/A,Fog,Fog,0,2013-08-22 10:35:00
6:55 AM,64.4,64.4,100,30.25,0.2,North,-9999.0,-,N/A,Rain,Rain,0,2013-08-22 10:55:00
7:15 AM,64.0,64.0,100,30.25,0.2,North,-9999.0,-,N/A,Fog,Fog,0,2013-08-22 11:15:00
7:35 AM,64.0,64.0,100,30.25,0.2,North,-9999.0,-,N/A,Fog,Fog,0,2013-08-22 11:35:00
7:55 AM,64.4,64.4,100,30.25,1.8,North,-9999.0,-,N/A,Rain,Light Rain,0,2013-08-22 11:55:00
8:15 AM,64.9,64.9,100,30.26,10.0,North,-9999.0,-,N/A,,Overcast,0,2013-08-22 12:15:00
8:35 AM,65.7,65.7,100,30.26,10.0,North,-9999.0,-,N/A,,Overcast,0,2013-08-22 12:35:00
8:55 AM,65.7,65.7,100,30.26,10.0,North,-9999.0,-,N/A,,Overcast,0,2013-08-22 12:55:00
9:15 AM,66.7,66.7,100,30.26,10.0,North,-9999.0,-,N/A,,Overcast,0,2013-08-22 13:15:00
9:35 AM,66.7,66.6,99,30.25,1.8,North,-9999.0,-,N/A,Rain,Light Rain,0,2013-08-22 13:35:00
9:55 AM,67.6,67.6,100,30.26,10.0,North,-9999.0,-,N/A,,Overcast,0,2013-08-22 13:55:00
10:15 AM,68.4,68.2,99,30.25,10.0,North,-9999.0,-,N/A,,Overcast,0,2013-08-22 14:15:00
10:35 AM,68.9,68.9,100,30.25,10.0,North,-9999.0,-,N/A,,Overcast,0,2013-08-22 14:35:00
10:55 AM,70.0,69.1,97,30.25,10.0,North,-9999.0,-,N/A,,Overcast,0,2013-08-22 14:55:00
11:15 AM,72.5,70.3,93,30.26,10.0,North,-9999.0,-,N/A,,Overcast,0,2013-08-22 15:15:00
11:35 AM,72.3,70.2,93,30.26,10.0,North,-9999.0,-,N/A,,Overcast,0,2013-08-22 15:35:00
11:55 AM,72.3,70.0,92,30.26,10.0,North,-9999.0,-,N/A,,Overcast,0,2013-08-22 15:55:00
12:15 PM,73.2,70.9,92,30.25,10.0,North,-9999.0,-,N/A,,Overcast,0,2013-08-22 16:15:00
12:35 PM,74.3,71.4,91,30.25,10.0,North,-9999.0,-,N/A,,Overcast,0,2013-08-22 16:35:00
12:55 PM,74.3,71.4,91,30.24,7.0,North,-9999.0,-,N/A,,Overcast,0,2013-08-22 16:55:00
1:15 PM,74.8,71.8,90,30.24,7.0,North,-9999.0,-,N/A,,Overcast,0,2013-08-22 17:15:00
1:35 PM,74.8,71.8,90,30.24,7.0,North,-9999.0,-,N/A,,Overcast,0,2013-08-22 17:35:00
1:55 PM,75.2,71.6,89,30.24,5.0,North,-9999.0,-,N/A,,Overcast,0,2013-08-22 17:55:00
2:15 PM,76.3,71.8,86,30.23,5.0,North,-9999.0,-,N/A,,Unknown,0,2013-08-22 18:15:00
2:35 PM,79.3,72.9,80,30.22,5.0,North,-9999.0,-,N/A,,Haze,0,2013-08-22 18:35:00
2:55 PM,79.0,72.1,79,30.21,7.0,North,-9999.0,-,N/A,,Mostly Cloudy,0,2013-08-22 18:55:00
3:15 PM,81.0,72.3,75,30.20,7.0,North,-9999.0,-,N/A,,Mostly Cloudy,0,2013-08-22 19:15:00
3:35 PM,81.0,72.1,74,30.20,7.0,North,-9999.0,-,N/A,,Scattered Clouds,0,2013-08-22 19:35:00
3:55 PM,80.8,71.6,73,30.19,10.0,North,-9999.0,-,N/A,,Mostly Cloudy,0,2013-08-22 19:55:00
4:15 PM,79.2,72.5,80,30.18,7.0,North,-9999.0,-,N/A,,Scattered Clouds,0,2013-08-22 20:15:00
4:35 PM,83.1,72.0,69,30.17,10.0,North,-9999.0,-,N/A,,Clear,0,2013-08-22 20:35:00
4:55 PM,81.9,72.1,72,30.16,10.0,North,-9999.0,-,N/A,,Clear,0,2013-08-22 20:55:00
5:15 PM,81.3,73.0,76,30.16,10.0,North,-9999.0,-,N/A,,Clear,0,2013-08-22 21:15:00
5:35 PM,78.3,74.3,88,30.15,7.0,North,-9999.0,-,N/A,,Mostly Cloudy,0,2013-08-22 21:35:00
5:55 PM,77.5,74.5,90,30.15,7.0,North,-9999.0,-,N/A,,Mostly Cloudy,0,2013-08-22 21:55:00
6:15 PM,76.5,74.3,93,30.15,5.0,North,-9999.0,-,N/A,,Mostly Cloudy,0,2013-08-22 22:15:00
6:35 PM,76.3,74.5,94,30.15,4.0,North,-9999.0,-,N/A,,Scattered Clouds,0,2013-08-22 22:35:00
6:55 PM,75.2,73.8,95,30.15,4.0,North,-9999.0,-,N/A,,Scattered Clouds,0,2013-08-22 22:55:00
7:15 PM,74.3,73.4,97,30.15,3.0,North,-9999.0,-,N/A,,Clear,0,2013-08-22 23:15:00
7:35 PM,73.4,72.9,98,30.15,2.0,North,-9999.0,-,N/A,,Clear,0,2013-08-22 23:35:00
7:55 PM,72.7,72.5,99,30.15,1.8,North,-9999.0,-,N/A,,Scattered Clouds,0,2013-08-22 23:55:00
8:15 PM,71.8,71.6,99,30.16,2.5,North,-9999.0,-,N/A,,Clear,0,2013-08-23 00:15:00
8:35 PM,71.2,71.2,100,30.16,2.5,North,-9999.0,-,N/A,,Mostly Cloudy,0,2013-08-23 00:35:00
8:55 PM,70.7,70.7,100,30.16,2.5,North,-9999.0,-,N/A,,Scattered Clouds,0,2013-08-23 00:55:00
9:15 PM,70.3,70.3,100,30.18,3.0,North,-9999.0,-,N/A,,Clear,0,2013-08-23 01:15:00
9:35 PM,70.2,70.2,100,30.17,2.0,North,-9999.0,-,N/A,,Clear,0,2013-08-23 01:35:00
9:55 PM,69.8,69.8,100,30.18,2.5,North,-9999.0,-,N/A,,Clear,0,2013-08-23 01:55:00
10:15 PM,69.8,69.8,100,30.18,1.8,North,-9999.0,-,N/A,,Mostly Cloudy,0,2013-08-23 02:15:00
10:35 PM,69.8,69.8,100,30.17,2.5,North,-9999.0,-,N/A,,Overcast,0,2013-08-23 02:35:00
10:55 PM,70.0,70.0,100,30.16,2.0,North,-9999.0,-,N/A,,Overcast,0,2013-08-23 02:55:00
11:15 PM,70.2,70.2,100,30.16,2.0,North,-9999.0,-,N/A,,Overcast,0,2013-08-23 03:15:00
11:35 PM,70.5,70.5,100,30.16,1.5,North,-9999.0,-,N/A,,Overcast,0,2013-08-23 03:35:00
11:55 PM,70.2,70.2,100,30.16,1.8,North,-9999.0,-,N/A,,Overcast,0,2013-08-23 03:55:00